Location: ?????oe
(44.4874°N, 135.7046°E)
Time: 01:21:43
(UTC+00:00)

Cosmos 2333 Rocket - Pass Details

Date: 13 December 2025
Orbit: 838 x 865 km, 70.8° (Epoch: 17 January)

Event Time Altitude Azimuth Distance (km) Brightness Sun altitude
Exits shadow 20:37:45 31° 294° (WNW) 1,461 2.9 -18.4°
Maximum altitude 20:39:37 40° 253° (WSW) 1,242 2.7 -18.1°
Drops below altitude 10° 20:44:55 10° 186° (S) 2,482 4.8 -17.2°
Sets 20:47:28 0° 179° (S) 3,409 5.6 -16.7°
